Weather History for KCDC - August, 2014

Change the Weather History Date:

Monday, August 18, 2014

  Actual Average Record
Temperature  
Mean Temperature 72 °F 71 °F  
Max Temperature 91 °F 87 °F 96 °F (1992)
Min Temperature 53 °F 55 °F 43 °F (1954)
Degree Days  
Heating Degree Days 0 0  
Month to date heating degree days 1 0  
Since 1 June heating degree days 28 79  
Since 1 July heating degree days 1 3  
Cooling Degree Days 7 6  
Month to date cooling degree days 100 132  
Year to date cooling degree days 520 485  
Since 1 June cooling degree days 495 477  
Growing Degree Days 22 (Base 50)    
Moisture  
Dew Point 40 °F    
Average Humidity 26    
Maximum Humidity 38    
Minimum Humidity 14    
Precipitation  
Precipitation 0.00 in 0.03 in 1.02 in (1984)
Month to date precipitation 0.29 0.70  
Year to date precipitation 4.16 7.11  
Sea Level Pressure  
Sea Level Pressure 29.90 in    
Wind  
Wind Speed 8 mph (SSW)    
Max Wind Speed 38 mph    
Max Gust Speed 50 mph    
Visibility 9 miles    
Events Rain , Thunderstorm    
T = Trace of Precipitation, MM = Missing Value Source: NWS Daily Summary

Daily Weather History Graph

Daily Weather History Graph

Search for Another Location

Airport or City:

Trip Planner

Search our weather history database for the weather conditions in past years. The results will help you decide how hot, cold, wet, or windy it might be!

Date:

Astronomy

Aug. 18, 2014 Rise Set
Actual Time 6:50 AM MDT 8:21 PM MDT
Civil Twilight 6:22 AM MDT 8:48 PM MDT
Nautical Twilight 5:49 AM MDT 9:21 PM MDT
Astronomical Twilight 5:14 AM MDT 9:56 PM MDT
Moon 1:02 AM MDT (8/18) 3:26 PM MDT (8/18)
Length of Visible Light 14h 25m
Length of Day
13h 30m
Last Quarter, 38% of the Moon is Illuminated
Aug 18
Last Quarter
Aug 25
New
Sep 2
First Quarter
Sep 8
Full
Sep 15
Last Quarter

Hourly Weather History & Observations

Time (MDT) Temp. Dew Point Humidity Pressure Visibility Wind Dir Wind Speed Gust Speed Precip Events Conditions
1:53 AM 68.0 °F 27.0 °F 21% 29.85 in 10.0 mi SE 9.2 mph - N/A   Clear
2:53 AM 63.0 °F 28.0 °F 27% 29.85 in 10.0 mi South 5.8 mph - N/A   Clear
3:53 AM 64.9 °F 28.9 °F 26% 29.84 in 10.0 mi SE 8.1 mph - N/A   Clear
4:53 AM 55.0 °F 33.1 °F 43% 29.89 in 10.0 mi SW 3.5 mph - N/A   Clear
5:53 AM 55.0 °F 28.9 °F 37% 29.88 in 10.0 mi NNE 3.5 mph - N/A   Clear
6:53 AM 54.0 °F 30.9 °F 41% 29.90 in 10.0 mi North 4.6 mph - N/A   Clear
7:53 AM 62.1 °F 30.9 °F 31% 29.90 in 10.0 mi NNE 3.5 mph - N/A   Clear
8:53 AM 72.0 °F 34.0 °F 25% 29.89 in 10.0 mi NE 3.5 mph - N/A   Clear
9:53 AM 77.0 °F 41.0 °F 28% 29.89 in 10.0 mi West 3.5 mph - N/A   Clear
10:53 AM 84.9 °F 34.0 °F 16% 29.86 in 10.0 mi SW 13.8 mph - N/A   Clear
11:53 AM 87.1 °F 37.0 °F 17% 29.85 in 10.0 mi WSW 12.7 mph 16.1 mph N/A   Clear
12:53 PM 89.1 °F 36.0 °F 15% 29.83 in 10.0 mi SSW 8.1 mph 17.3 mph N/A   Clear
1:53 PM 90.0 °F 36.0 °F 15% 29.81 in 10.0 mi SW 11.5 mph - N/A   Clear
2:53 PM 89.1 °F 32.0 °F 13% 29.79 in 10.0 mi West 9.2 mph - N/A   Clear
3:53 PM 86.0 °F 42.1 °F 21% 29.77 in 10.0 mi West 12.7 mph - N/A   Clear
4:35 PM 82.9 °F 44.1 °F 25% 30.04 in 10.0 mi SW 20.7 mph 27.6 mph N/A Thunderstorm Partly Cloudy
4:44 PM 80.1 °F 46.9 °F 31% 30.05 in 3.0 mi SSW 33.4 mph 47.2 mph N/A Thunderstorm Haze
4:47 PM 77.0 °F 50.0 °F 39% 30.05 in 1.8 mi SSW 38.0 mph 50.6 mph N/A Thunderstorm Haze
4:53 PM 75.0 °F 51.1 °F 43% 29.86 in 1.2 mi SSW 32.2 mph 50.6 mph N/A Thunderstorm Haze
4:59 PM 75.0 °F 51.1 °F 43% 30.05 in 3.0 mi SSW 25.3 mph 50.6 mph N/A Thunderstorm Haze
5:14 PM 73.9 °F 52.0 °F 46% 30.07 in 10.0 mi SSW 23.0 mph 36.8 mph N/A   Scattered Clouds
5:53 PM 73.0 °F 48.9 °F 42% 29.89 in 10.0 mi South 21.9 mph 39.1 mph N/A   Mostly Cloudy
6:53 PM 73.9 °F 43.0 °F 33% 29.89 in 10.0 mi SE 18.4 mph 26.5 mph 0.00 in Rain Light Rain
7:05 PM 71.1 °F 45.0 °F 39% 30.06 in 10.0 mi ESE 19.6 mph - 0.00 in Rain Light Rain
7:53 PM 73.0 °F 42.1 °F 33% 29.86 in 10.0 mi South 10.4 mph 20.7 mph 0.00 in   Overcast
8:53 PM 66.0 °F 51.1 °F 59% 29.90 in 10.0 mi NE 10.4 mph - 0.00 in Rain Light Rain
10:53 PM 66.0 °F 52.0 °F 60% 29.86 in 10.0 mi South 6.9 mph - 0.00 in   Overcast
11:53 PM 61.0 °F 55.0 °F 81% 29.86 in 10.0 mi Calm Calm - 0.00 in   Overcast